,

(GMT )
Montijo

Weather History for LPMT - September, 2017

Change the Weather History Date:

Thursday, September 14, 2017

  Actual Average Record
Temperature  
Mean Temperature 72 °F -  
Max Temperature 83 °F - - ()
Min Temperature 62 °F - - ()
Cooling Degree Days 8    
Growing Degree Days 22 (Base 50)    
Moisture  
Dew Point 58 °F    
Average Humidity 66    
Maximum Humidity 83    
Minimum Humidity 40    
Precipitation  
Precipitation 0.00 in - - ()
Sea Level Pressure  
Sea Level Pressure 30.14 in    
Wind  
Wind Speed 9 mph ()    
Max Wind Speed 14 mph    
Max Gust Speed -    
Visibility 8.6 miles    
Events      
T = Trace of Precipitation, MM = Missing Value Source: Averaged Metar Reports

Daily Weather History Graph

Daily Weather History Graph

Search for Another Location

Airport or City:

Astronomy

Sep. 14, 2017 Rise Set
Actual Time 7:16 AM WEST 7:45 PM WEST
Civil Twilight 6:50 AM WEST 8:12 PM WEST
Nautical Twilight 6:18 AM WEST 8:43 PM WEST
Astronomical Twilight 5:46 AM WEST 9:15 PM WEST
Moon 1:03 AM WEST (9/14) 3:46 PM WEST (9/14)
Length of Visible Light 13h 22m
Length of Day
12h 29m
Last Quarter, 37% of the Moon is Illuminated
Sep 14
Last Quarter
Sep 20
New
Sep 28
First Quarter
Oct 5
Full
Oct 12
Last Quarter

Hourly Weather History & Observations

Time (WEST) Temp. Heat Index Dew Point Humidity Pressure Visibility Wind Dir Wind Speed Gust Speed Precip Events Conditions
12:00 AM 66.2 °F - 59.0 °F 78% 30.15 in - North 10.4 mph - N/A   Clear
1:00 AM 64 °F - 59 °F 78% 30.18 in 12 mi North 2.2 mph - -   Clear
1:00 AM 64.4 °F - 59.0 °F 83% 30.18 in - Variable 2.3 mph - N/A   Clear
2:00 AM 66.2 °F - 60.8 °F 83% 30.18 in - NNW 8.1 mph - N/A   Clear
3:00 AM 66.2 °F - 59.0 °F 78% 30.15 in 6.2 mi North 10.4 mph - N/A   Partly Cloudy
4:00 AM 66 °F - 60 °F 75% 30.16 in 12 mi North 13.4 mph - -   Scattered Clouds
4:00 AM 66.2 °F - 60.8 °F 83% 30.15 in 6.2 mi North 13.8 mph - N/A   Partly Cloudy
5:00 AM 66.2 °F - 60.8 °F 83% 30.15 in 6.2 mi North 11.5 mph - N/A   Scattered Clouds
6:00 AM 66.2 °F - 59.0 °F 78% 30.15 in 6.2 mi North 9.2 mph - N/A   Mostly Cloudy
7:00 AM 66 °F - 60 °F 74% 30.17 in 12 mi North 11.2 mph - -   Scattered Clouds
7:00 AM 66.2 °F - 59.0 °F 78% 30.15 in 6.2 mi North 11.5 mph - N/A   Partly Cloudy
8:00 AM 66.2 °F - 59.0 °F 78% 30.18 in 6.2 mi North 11.5 mph - N/A   Partly Cloudy
9:00 AM 68.0 °F - 59.0 °F 73% 30.18 in 6.2 mi North 10.4 mph - N/A   Partly Cloudy
10:00 AM 70 °F - 60 °F 61% 30.20 in 12 mi North 11.2 mph - -   Scattered Clouds
10:00 AM 69.8 °F - 59.0 °F 68% 30.18 in 6.2 mi North 10.4 mph - N/A   Partly Cloudy
12:00 PM 77.0 °F - 60.8 °F 57% 30.18 in - NNE 13.8 mph - N/A   Clear
1:00 PM 79 °F - 61 °F 44% 30.16 in 12 mi North 13.4 mph - -   Scattered Clouds
1:00 PM 78.8 °F - 60.8 °F 54% 30.15 in 6.2 mi North 12.7 mph - N/A   Partly Cloudy
2:00 PM 82.4 °F 83.4 °F 62.6 °F 51% 30.12 in 6.2 mi North 12.7 mph - N/A   Partly Cloudy
3:00 PM 82.4 °F 83.9 °F 64.4 °F 54% 30.09 in 6.2 mi North 13.8 mph - N/A   Partly Cloudy
4:00 PM 80 °F - 63 °F 46% 30.10 in 12 mi NNW 13.4 mph - -   Clear
4:00 PM 80.6 °F 81.8 °F 62.6 °F 54% 30.09 in - NNW 12.7 mph - N/A   Clear
5:00 PM 78.8 °F - 60.8 °F 54% 30.06 in - NNW 12.7 mph - N/A   Clear
6:00 PM 75.2 °F - 53.6 °F 47% 30.06 in - North 12.7 mph - N/A   Clear
7:00 PM 71 °F - 52 °F 40% 30.10 in 12 mi NNW 13.4 mph - -   Clear
8:00 PM 66.2 °F - 51.8 °F 60% 30.09 in - North 12.7 mph - N/A   Clear
9:00 PM 64.4 °F - 51.8 °F 64% 30.12 in - North 11.5 mph - N/A   Clear
10:00 PM 63 °F - 52 °F 58% 30.14 in 12 mi North 13.4 mph - -   Clear
10:00 PM 62.6 °F - 51.8 °F 68% 30.12 in - North 13.8 mph - N/A   Clear
11:00 PM 62.6 °F - 51.8 °F 68% 30.12 in - North 12.7 mph - N/A   Clear